Location: Brahman Valley
(40.6513°N, 111.8855°W)
Time: 11:59:58
(UTC+00:00)

Vanguard 2 - Pass Details

Date: 13 May 2021
Orbit: 552 x 2937 km, 32.9° (Epoch: 14 June)

Event Time Altitude Azimuth Distance (km) Brightness Sun altitude
Rises 18:23:04 0° 278° (W) 6,047 11.9 64.4°
Reaches altitude 10° 18:27:04 10° 271° (W) 5,282 11.8 64.8°
Maximum altitude 18:41:44 41° 210° (SSW) 3,799 12.0 66.1°
Drops below altitude 10° 18:57:06 10° 148° (SSE) 5,496 12.4 67.2°
Sets 19:01:25 0° 141° (SE) 6,302 12.5 67.4°
